Location: Niedergestelen
(46.3129°N, 7.7822°E)
Time: 21:20:16
(UTC+00:00)

IRS-1C Rocket - Visible Passes

Search period start: 12 April 2021 00:00
Search period end: 22 April 2021 00:00
Orbit: 800 x 806 km, 99.0° (Epoch: 12 April)

Date Brightness Start Highest point End Pass type
(mag) Time Alt. Az. Time Alt. Az. Time Alt. Az.
12 Apr 6.6 19:16:22 10° SW 19:20:23 22° W 19:24:26 10° NW visible
13 Apr 5.8 18:49:37 10° SSW 18:54:27 36° W 18:59:18 10° NNW visible
15 Apr 6.9 19:40:30 10° WSW 19:43:13 14° W 19:45:56 10° WNW visible
16 Apr 6.5 19:13:00 10° SW 19:17:11 24° W 19:21:23 10° NW visible
17 Apr 5.7 18:46:21 10° SSW 18:51:15 38° W 18:56:11 10° NNW visible
19 Apr 6.9 19:37:00 10° SW 19:40:00 15° W 19:43:01 10° NW visible
20 Apr 6.4 19:09:40 10° SSW 19:13:59 25° W 19:18:19 10° NW visible
